FENGYUN 1C DEB, 30879

Orbit data source: Space-Track

FENGYUN 1C DEB, 30879 is space debris in SSO originally from a launch on Mon, 10 May 1999 UTC launched from the Taiyaun Space Center, China (TSC). Fengyun 1C debris stems from the Chinese weather satellite Fengyun-1C, which was intentionally destroyed by a Chinese anti-satellite missile in 2007. This event dramatically increased the amount of space debris, with thousands of trackable fragments posing hazards to satellites and human spaceflight. The Fengyun 1C debris cloud has become a focal point in discussions about space sustainability and the need for international regulations to prevent the creation of new debris.

Loading next visibility...
Identifier
30879, 1999-025AXR
Orbit
SSO
Country
Flag of CNCN / PRC
Related business
Manufacturer
Unknown
Mission
Spacecraft
Bus & Motor
Unknown
Mass
Unknown
Launch date (UTC)
1999-05-10 (27 years ago)
Launch vehicle
Unknown
Launch site
Taiyaun Space Center, China (TSC)
Object type
Payload
Rocket body
Debris
Shape & HBR
Unknown shape, 0.1 m
Radar Cross Section
Small (<0.1 m²)

Expand to show TLE details & history
Last TLE update: 2 days ago

TLE from 2 days ago
0 FENGYUN 1C DEB
1 30879U 99025AXR 26119.48445300  .00016972  00000-0  19498-2 0  9997
2 30879  99.3437   1.5645 0178909 216.0434 142.8601 14.74996035639658
Epoch: 2026-04-29T11:37Z
TLE epoch observation values (Epoch: 2026-04-29T11:37:36.739Z)
Latitude
0.00004°
Longitude
-30.28333°
Altitude
749.121 km
Speed
7.426 km/s
True Right ascension
00h 06m 15s
True Declination
0° 00' 00"
Sunlit
Object was in daylight at epoch
Visualization orbit readout
Latitude
Unknown
Longitude
Unknown
Altitude
Unknown
Speed
Unknown
Apparent Right ascension
Unknown
Apparent Declination
Unknown
Sunlit
N/A
Visualization observer readout
Local Sidereal Time
09:45:38
Azimuth
Unknown
Elevation
Unknown
Doppler factor
Unknown
Orbital elements
Apogee altitude
767.882 km
Perigee altitude
516.679 km
Semi-major axis
7,020.417 km
Eccentricity
0.01789
Inclination
99.3437°
RAAN
1.5645°
Arg. of periapsis
216.0434°
True anomaly
144.07612°
Mean anomaly
142.8601°
Eccentric anomaly
143.47026°
Mean motion
3.68977 °/min
Orbital period
97.57 mins
BSTAR
0.0019498
Loading maneuver chart data...
Computing Atmospheric mass density...

Documentation

Showing up to 5 results
|